This is the latest recevied weather packets stored in our database for station/object KJ4EBE. If no packets are shown the sender has not sent any weather packets the latest 10 day(s).
| Time | Temp. | Humidity | Pressure | Rain* | Wind** | Luminosity | Snow |
|---|---|---|---|---|---|---|---|
| 1778026175 | 29.44° C | 71% | 1005.3 hPa | 0 mm | - | 73 W/m² | - |
| 1778025873 | 29.44° C | 71% | 1005.2 hPa | 0 mm | - | 75 W/m² | - |
| 1778025569 | 29.44° C | 71% | 1005.2 hPa | 0 mm | - | 90 W/m² | - |
| 1778025267 | 29.44° C | 70% | 1005.4 hPa | 0 mm | - | 98 W/m² | - |
| 1778024964 | 29.44° C | 70% | 1005.3 hPa | 0 mm | - | 103 W/m² | - |
| 1778024661 | 30° C | 70% | 1005.2 hPa | 0 mm | - | 109 W/m² | - |
| 1778024358 | 30° C | 67% | 1005.3 hPa | 0 mm | - | 101 W/m² | - |
| 1778024056 | 30° C | 64% | 1005.2 hPa | 0 mm | - | 113 W/m² | - |
| 1778023753 | 30° C | 63% | 1005.1 hPa | 0 mm | - | 129 W/m² | - |
| 1778023451 | 30° C | 64% | 1005.1 hPa | 0 mm | - | 105 W/m² | - |
| 1778023147 | 30.56° C | 63% | 1005.2 hPa | 0 mm | - | 119 W/m² | - |
| 1778022845 | 30.56° C | 62% | 1005.2 hPa | 0 mm | - | 183 W/m² | - |
| 1778022543 | 31.11° C | 62% | 1005.1 hPa | 0 mm | - | 209 W/m² | - |
| 1778022240 | 30.56° C | 64% | 1005.1 hPa | 0 mm | - | 163 W/m² | - |
| 1778021936 | 30.56° C | 62% | 1004.9 hPa | 0 mm | - | 167 W/m² | - |
| 1778021634 | 30.56° C | 64% | 1005 hPa | 0 mm | - | 178 W/m² | - |
| 1778021329 | 30.56° C | 64% | 1005 hPa | 0 mm | - | 151 W/m² | - |
| 1778021027 | 31.11° C | 62% | 1005 hPa | 0 mm | - | 164 W/m² | - |
| 1778020724 | 31.67° C | 62% | 1005 hPa | 0 mm | - | 246 W/m² | - |
| 1778020420 | 31.11° C | 63% | 1005 hPa | 0 mm | - | 322 W/m² | - |
| 1778020116 | 31.11° C | 62% | 1005.2 hPa | 0 mm | - | 194 W/m² | - |
| 1778019813 | 31.11° C | 62% | 1005 hPa | 0 mm | - | 239 W/m² | - |
| 1778019510 | 31.67° C | 62% | 1005.1 hPa | 0 mm | - | 248 W/m² | - |
| 1778019206 | 31.67° C | 62% | 1005.1 hPa | 0 mm | - | 354 W/m² | - |
| 1778018904 | 31.67° C | 63% | 1005 hPa | 0 mm | - | 381 W/m² | - |
* Rain latest hour (hover to see other rain measurements)
** Current wind speed in m/s (hover to see current wind gust speed)